Hourly Weather New Delhi

Today, 27 November, Friday

Time Temperature Precipitation Wind Pressure Humidity
00:00 +20°C° 0 mm 3 mps 744 mmHg 39%
01:00 +20°C° 0 mm 3 mps 744 mmHg 40%
02:00 +19°C° 0 mm 3 mps 744 mmHg 41%
03:00 +19°C° 0 mm 3 mps 744 mmHg 42%
04:00 +19°C° 0 mm 3 mps 744 mmHg 44%
05:00 +18°C° 0 mm 3 mps 744 mmHg 48%
06:00 +18°C° 0 mm 3 mps 744 mmHg 48%
07:00 +19°C° 0 mm 3 mps 745 mmHg 47%
08:00 +19°C° 0 mm 3 mps 745 mmHg 46%
09:00 +21°C° 0 mm 3 mps 746 mmHg 41%
10:00 +22°C° 0 mm 3 mps 746 mmHg 36%
11:00 +25°C° 0 mm 3 mps 746 mmHg 31%
12:00 +26°C° 0 mm 3 mps 745 mmHg 28%
13:00 +27°C° 0 mm 3 mps 745 mmHg 25%
14:00 +27°C° 0 mm 3 mps 744 mmHg 22%
15:00 +27°C° 0 mm 3 mps 744 mmHg 23%
16:00 +26°C° 0 mm 2 mps 743 mmHg 24%
17:00 +25°C° 0 mm 2 mps 743 mmHg 25%
18:00 +25°C° 0 mm 2 mps 744 mmHg 27%
19:00 +24°C° 0 mm 2 mps 744 mmHg 29%
20:00 +23°C° 0 mm 2 mps 745 mmHg 30%
21:00 +23°C° 0 mm 2 mps 745 mmHg 32%
22:00 +21°C° 0 mm 2 mps 745 mmHg 33%
23:00 +21°C° 0 mm 2 mps 745 mmHg 35%

Tomorrow, 28 November, Saturday

Time Temperature Precipitation Wind Pressure Humidity
00:00 +20°C° 0 mm 2 mps 744 mmHg 36%
01:00 +20°C° 0 mm 2 mps 744 mmHg 36%
02:00 +19°C° 0 mm 2 mps 744 mmHg 37%
03:00 +19°C° 0 mm 2 mps 744 mmHg 37%
04:00 +18°C° 0 mm 3 mps 744 mmHg 37%
05:00 +18°C° 0 mm 3 mps 744 mmHg 37%
06:00 +18°C° 0 mm 3 mps 744 mmHg 36%
07:00 +18°C° 0 mm 3 mps 745 mmHg 35%
08:00 +19°C° 0 mm 3 mps 745 mmHg 34%
09:00 +20°C° 0 mm 3 mps 745 mmHg 30%
10:00 +22°C° 0 mm 3 mps 745 mmHg 27%
11:00 +25°C° 0 mm 3 mps 745 mmHg 23%
12:00 +26°C° 0 mm 3 mps 744 mmHg 22%
13:00 +27°C° 0 mm 3 mps 743 mmHg 20%
14:00 +28°C° 0 mm 3 mps 742 mmHg 19%
15:00 +27°C° 0 mm 3 mps 742 mmHg 20%
16:00 +26°C° 0 mm 2 mps 742 mmHg 21%
17:00 +25°C° 0 mm 2 mps 742 mmHg 22%
18:00 +24°C° 0 mm 2 mps 742 mmHg 23%
19:00 +24°C° 0 mm 1 mps 742 mmHg 24%
20:00 +23°C° 0 mm 1 mps 743 mmHg 25%
21:00 +22°C° 0 mm 1 mps 743 mmHg 25%
22:00 +22°C° 0 mm 1 mps 743 mmHg 25%
23:00 +21°C° 0 mm 1 mps 743 mmHg 26%

Day after tomorrow, 29 November, Sunday

Time Temperature Precipitation Wind Pressure Humidity
00:00 +21°C° 0 mm 1 mps 742 mmHg 26%
01:00 +21°C° 0 mm 1 mps 742 mmHg 26%
02:00 +20°C° 0 mm 1 mps 742 mmHg 26%
03:00 +20°C° 0 mm 1 mps 742 mmHg 26%
04:00 +19°C° 0 mm 1 mps 742 mmHg 26%
05:00 +18°C° 0 mm 2 mps 742 mmHg 26%
06:00 +18°C° 0 mm 2 mps 743 mmHg 24%
07:00 +20°C° 0 mm 1 mps 743 mmHg 23%
08:00 +20°C° 0 mm 1 mps 744 mmHg 22%
09:00 +21°C° 0 mm 2 mps 744 mmHg 20%
10:00 +24°C° 0 mm 2 mps 744 mmHg 17%
11:00 +25°C° 0 mm 2 mps 744 mmHg 15%
12:00 +26°C° 0 mm 2 mps 743 mmHg 13%
13:00 +27°C° 0 mm 2 mps 743 mmHg 12%
14:00 +28°C° 0 mm 2 mps 742 mmHg 11%
15:00 +27°C° 0 mm 1 mps 742 mmHg 12%
16:00 +26°C° 0 mm 1 mps 741 mmHg 13%
17:00 +25°C° 0 mm 1 mps 741 mmHg 14%
18:00 +25°C° 0 mm 1 mps 741 mmHg 15%
19:00 +24°C° 0 mm 1 mps 742 mmHg 16%
20:00 +23°C° 0 mm 1 mps 742 mmHg 17%
21:00 +23°C° 0 mm 1 mps 742 mmHg 17%
22:00 +20°C° 0 mm 0 mps 742 mmHg 18%
23:00 +20°C° 0 mm 0 mps 742 mmHg 19%

30 November, Monday

Time Temperature Precipitation Wind Pressure Humidity
00:00 +19°C° 0 mm 0 mps 742 mmHg 19%
01:00 +19°C° 0 mm 0 mps 742 mmHg 19%
02:00 +19°C° 0 mm 0 mps 741 mmHg 20%
03:00 +20°C° 0 mm 1 mps 741 mmHg 20%
04:00 +20°C° 0 mm 1 mps 741 mmHg 20%
05:00 +19°C° 0 mm 1 mps 741 mmHg 21%
06:00 +20°C° 0 mm 1 mps 742 mmHg 20%
07:00 +18°C° 0 mm 0 mps 742 mmHg 20%
08:00 +19°C° 0 mm 0 mps 743 mmHg 19%
09:00 +21°C° 0 mm 0 mps 743 mmHg 17%
10:00 +22°C° 0 mm 0 mps 743 mmHg 15%
11:00 +24°C° 0 mm 0 mps 743 mmHg 13%
12:00 +27°C° 0 mm 1 mps 742 mmHg 12%
13:00 +28°C° 0 mm 1 mps 742 mmHg 11%
14:00 +28°C° 0 mm 1 mps 741 mmHg 10%
15:00 +27°C° 0 mm 1 mps 741 mmHg 11%
16:00 +27°C° 0 mm 1 mps 741 mmHg 12%
17:00 +26°C° 0 mm 1 mps 741 mmHg 13%
18:00 +25°C° 0 mm 1 mps 741 mmHg 14%
19:00 +24°C° 0 mm 1 mps 741 mmHg 14%
20:00 +24°C° 0 mm 1 mps 742 mmHg 15%
21:00 +23°C° 0 mm 1 mps 742 mmHg 16%
22:00 +23°C° 0 mm 1 mps 742 mmHg 16%
23:00 +20°C° 0 mm 0 mps 742 mmHg 17%

1 December, Tuesday

Time Temperature Precipitation Wind Pressure Humidity
00:00 +20°C° 0 mm 0 mps 742 mmHg 18%
01:00 +20°C° 0 mm 0 mps 741 mmHg 18%
02:00 +19°C° 0 mm 0 mps 741 mmHg 19%
03:00 +19°C° 0 mm 0 mps 741 mmHg 19%
04:00 +18°C° 0 mm 0 mps 741 mmHg 20%
05:00 +18°C° 0 mm 0 mps 741 mmHg 21%
06:00 +18°C° 0 mm 0 mps 742 mmHg 20%
07:00 +19°C° 0 mm 0 mps 742 mmHg 20%
08:00 +19°C° 0 mm 0 mps 743 mmHg 20%
09:00 +21°C° 0 mm 0 mps 743 mmHg 18%
10:00 +25°C° 0 mm 1 mps 743 mmHg 16%
11:00 +27°C° 0 mm 1 mps 743 mmHg 14%
12:00 +27°C° 0 mm 1 mps 742 mmHg 13%
13:00 +28°C° 0 mm 2 mps 742 mmHg 12%
14:00 +29°C° 0 mm 2 mps 741 mmHg 12%
15:00 +28°C° 0 mm 2 mps 741 mmHg 13%
16:00 +27°C° 0 mm 1 mps 741 mmHg 14%
17:00 +26°C° 0 mm 1 mps 741 mmHg 14%
18:00 +26°C° 0 mm 1 mps 741 mmHg 15%
19:00 +25°C° 0 mm 1 mps 741 mmHg 16%
20:00 +24°C° 0 mm 1 mps 741 mmHg 17%
21:00 +24°C° 0 mm 1 mps 741 mmHg 18%
22:00 +23°C° 0 mm 1 mps 741 mmHg 18%
23:00 +21°C° 0 mm 0 mps 741 mmHg 19%

2 December, Wednesday

Time Temperature Precipitation Wind Pressure Humidity
00:00 +20°C° 0 mm 0 mps 741 mmHg 19%
01:00 +22°C° 0 mm 1 mps 741 mmHg 20%
02:00 +22°C° 0 mm 1 mps 741 mmHg 20%
03:00 +21°C° 0 mm 1 mps 741 mmHg 20%
04:00 +21°C° 0 mm 1 mps 741 mmHg 21%
05:00 +21°C° 0 mm 1 mps 741 mmHg 21%
06:00 +21°C° 0 mm 1 mps 741 mmHg 21%
07:00 +21°C° 0 mm 1 mps 742 mmHg 21%
08:00 +22°C° 0 mm 1 mps 742 mmHg 21%
09:00 +23°C° 0 mm 2 mps 742 mmHg 19%
10:00 +25°C° 0 mm 2 mps 742 mmHg 17%
11:00 +27°C° 0 mm 2 mps 742 mmHg 14%
12:00 +28°C° 0 mm 3 mps 741 mmHg 14%
13:00 +29°C° 0 mm 3 mps 740 mmHg 13%
14:00 +30°C° 0 mm 3 mps 740 mmHg 12%
15:00 +29°C° 0 mm 3 mps 739 mmHg 14%
16:00 +28°C° 0 mm 2 mps 739 mmHg 15%
17:00 +27°C° 0 mm 2 mps 739 mmHg 16%
18:00 +26°C° 0 mm 2 mps 739 mmHg 17%
19:00 +25°C° 0 mm 2 mps 739 mmHg 18%
20:00 +24°C° 0 mm 2 mps 739 mmHg 19%
21:00 +24°C° 0 mm 2 mps 739 mmHg 19%
22:00 +23°C° 0 mm 2 mps 739 mmHg 20%
23:00 +23°C° 0 mm 2 mps 739 mmHg 20%
Show more

We Need Your Consent

Meteoprog and our Service Providers may store and access personal data such as cookies, device identifiers or other similar technologies on your device and process such data to personalise content and ads, as well as provide social media features and to analyse the traffic.

  • Store and/or access information on your device

    Cookies, device identifiers or other information can be stored or accessed on your device for the purposes indicated above.

  • Personalised ads and content, ad and content measurement, audience insights, and products development

    Ads and content can be personalised based on a profile. More data can be added to better personalise ads and content. Ad and content performance can be measured. Insights about the audience who saw the ads and content can be derived. Such data can be used to develop or improve user’s experience, systems and software.

By clicking ‘I Agree’ you will allow the use of indicated cookies, device identifiers, web beacons or other similar technologies. Your settings can be changed in the browser on your device.

For certain purposes, legitimate interests may be relied on, rather than consent. You can read more about this in our Privacy and Cookie Policy.